User: anonymous   Login
Location: Lone Wolf Observatory
(41.0360°N, 89.2260°W)
Time: 06:54:37
(UTC-05:00)
Language:

Cosmos 1378 Rocket - Orbit

View from above orbital plane
View from above orbital plane
View from above satellite
View from above satellite

Ground track
Ground track

The orbit data is extracted from the following two-line orbital elements,

1 13272U 82059B   15241.58492965  .00000245  00000-0  26197-4 0  9990
2 13272 082.5100 036.9939 0019912 126.3937 233.9119 14.84408440794336
Epoch (UTC): 29 August 2015 14:02:17
Eccentricity: 0.0019912
inclination: 82.5100°
perigee height: 601 km
apogee height: 629 km
right ascension of ascending node: 36.9939°
argument of perigee: 126.3937°
revolutions per day: 14.84408440
mean anomaly at epoch: 233.9119°
orbit number at epoch: 79433

The dashed part of the orbit path shows where the satellite is in the earth's shadow,  

DLR